| time (UTC) | temp C | wind direction | speed KPH | gust KPH | rain 1hr cm | rain 24hr cm | rain mn cm | humidity % | barometer mb |
| 20260905180605 | 24 | 222 | 3.2 | 16.1 | 0.00 | 0.00 | 0.00 | 23 | 1022.7 |
| 20260905180112 | 24 | 198 | 3.2 | 16.1 | 0.00 | 0.00 | 0.00 | 23 | 1022.9 |
| 20260905170605 | 22 | 16 | 1.6 | 9.7 | 0.00 | 0.00 | 0.00 | 30 | 1023.3 |
| 20260905170112 | 21 | 13 | 1.6 | 9.7 | 0.00 | 0.00 | 0.00 | 30 | 1023.4 |
| 20260905160606 | 21 | 170 | 1.6 | 12.9 | 0.00 | 0.00 | 0.00 | 32 | 1023.2 |
| 20260905150606 | 19 | 13 | 3.2 | 11.3 | 0.00 | 0.00 | 0.00 | 35 | 1023.0 |
| 20260905140111 | 14 | 20 | 4.8 | 9.7 | 0.00 | 0.00 | 0.00 | 49 | 1022.8 |
| 20260905130605 | 13 | 98 | 1.6 | 8.0 | 0.00 | 0.00 | 0.00 | 50 | 1022.4 |
| 20260905130111 | 13 | 86 | 0.0 | 9.7 | 0.00 | 0.00 | 0.00 | 49 | 1022.3 |
| 20260905120606 | 13 | 89 | 1.6 | 9.7 | 0.00 | 0.00 | 0.00 | 50 | 1022.0 |
| 20260905110605 | 11 | 124 | 0.0 | 0.0 | 0.00 | 0.00 | 0.00 | 50 | 1022.0 |
| 20260905100111 | 11 | 121 | 0.0 | 1.6 | 0.00 | 0.00 | 0.00 | 47 | 1021.6 |
| 20260905090605 | 11 | 133 | 0.0 | 0.0 | 0.00 | 0.00 | 0.00 | 43 | 1021.6 |
| 20260905090111 | 12 | 135 | 0.0 | 0.0 | 0.00 | 0.00 | 0.00 | 43 | 1021.6 |
| 20260905080605 | 12 | 135 | 0.0 | 0.0 | 0.00 | 0.00 | 0.00 | 39 | 1021.4 |
| 20260905080111 | 12 | 136 | 0.0 | 0.0 | 0.00 | 0.00 | 0.00 | 39 | 1021.5 |
| 20260905070605 | 13 | 129 | 0.0 | 1.6 | 0.00 | 0.00 | 0.00 | 36 | 1021.3 |
| 20260905070111 | 13 | 127 | 0.0 | 1.6 | 0.00 | 0.00 | 0.00 | 36 | 1021.1 |
| 20260905060605 | 13 | 113 | 0.0 | 0.0 | 0.00 | 0.00 | 0.00 | 35 | 1021.1 |
| 20260905060112 | 12 | 119 | 0.0 | 0.0 | 0.00 | 0.00 | 0.00 | 36 | 1021.2 |
| 20260905050606 | 12 | 31 | 0.0 | 0.0 | 0.00 | 0.00 | 0.00 | 33 | 1021.3 |
| 20260905050113 | 13 | 34 | 0.0 | 0.0 | 0.00 | 0.00 | 0.00 | 33 | 1021.4 |
| 20260905040606 | 15 | 26 | 0.0 | 0.0 | 0.00 | 0.00 | 0.00 | 29 | 1021.4 |
| 20260905030606 | 16 | 24 | 0.0 | 1.6 | 0.00 | 0.00 | 0.00 | 23 | 1020.7 |
| 20260905030112 | 16 | 24 | 0.0 | 1.6 | 0.00 | 0.00 | 0.00 | 23 | 1020.7 |
| 20260905020608 | 19 | 23 | 0.0 | 0.0 | 0.00 | 0.00 | 0.00 | 18 | 1019.7 |
| 20260905020112 | 20 | 16 | 0.0 | 0.0 | 0.00 | 0.00 | 0.00 | 17 | 1019.7 |
| 20260905010606 | 23 | 13 | 1.6 | 9.7 | 0.00 | 0.00 | 0.00 | 12 | 1019.4 |
| 20260905010112 | 24 | 155 | 1.6 | 8.0 | 0.00 | 0.00 | 0.00 | 12 | 1019.4 |
| 20260905000606 | 25 | 156 | 3.2 | 12.9 | 0.00 | 0.00 | 0.00 | 13 | 1019.4 |
| 20260904230607 | 25 | 118 | 1.6 | 19.3 | 0.00 | 0.00 | 0.00 | 16 | 1019.3 |
| 20260904230112 | 25 | 173 | 4.8 | 19.3 | 0.00 | 0.00 | 0.00 | 15 | 1019.4 |
| 20260904220606 | 26 | 165 | 4.8 | 14.5 | 0.00 | 0.00 | 0.00 | 17 | 1019.6 |
| 20260904220111 | 26 | 200 | 8.0 | 14.5 | 0.00 | 0.00 | 0.00 | 17 | 1019.6 |
| 20260904210112 | 26 | 155 | 11.3 | 19.3 | 0.00 | 0.00 | 0.00 | 15 | 1020.0 |
| 20260904200606 | 24 | 14 | 3.2 | 12.9 | 0.00 | 0.00 | 0.00 | 22 | 1020.5 |
| 20260904190111 | 23 | 14 | 3.2 | 12.9 | 0.00 | 0.00 | 0.00 | 27 | 1020.7 |